Theta_e
353 354 358 358 356 354 352 352 352 352 352 352 352 352 352 353 353 353 353 352 351 350 348 348 348 348 348 347 347 347 348 348
352 354 358 356 356 355 353 353 352 352 354 355 351 351 352 353 353 353 352 351 350 349 348 346 346 345 346 346 347 348 349 351
352 354 357 357 357 356 354 353 353 354 354 354 353 352 353 353 353 352 351 350 348 348 346 346 345 345 346 347 349 350 350 350
352 353 356 356 357 356 355 354 353 353 354 355 355 355 353 353 352 352 350 349 349 348 348 348 349 350 350 351 351 352 352 352
351 352 354 356 352 353 354 355 354 353 353 354 353 353 353 352 352 351 351 350 350 350 350 351 352 353 353 354 355 354 354 355
347 351 353 353 354 352 351 354 353 354 353 353 353 353 352 349 349 349 351 350 350 351 353 354 355 355 355 356 354 354 353 349
344 347 350 352 353 352 349 353 353 352 352 352 352 352 350 350 349 348 349 351 353 354 355 355 356 355 355 354 354 353 351 350
342 346 348 352 353 351 348 351 351 351 352 353 354 353 353 349 350 349 349 349 351 352 353 354 354 354 354 354 352 353 353 352
342 345 348 350 351 351 350 350 350 350 351 350 351 354 352 350 350 348 346 348 351 354 353 352 352 355 355 355 353 351 350 352
340 344 347 350 350 349 348 349 350 349 349 350 350 352 351 349 349 348 347 346 348 350 349 350 352 353 353 351 350 349 350 353
339 343 346 348 350 350 349 350 349 349 350 350 349 350 352 350 349 346 346 346 348 349 349 350 351 351 349 348 347 351 352 353
339 344 346 348 350 350 350 350 349 349 348 348 348 351 351 351 349 350 347 349 349 350 350 349 349 349 347 348 350 350 351 351
342 342 346 345 348 349 349 349 348 348 348 348 347 348 349 349 350 350 349 349 351 351 352 352 350 348 348 346 346 347 348 349
345 344 344 346 345 347 349 348 349 349 347 348 349 350 351 350 350 350 349 351 353 351 350 350 346 342 339 337 336 337 343 344
345 346 345 345 347 348 347 347 347 348 349 353 353 354 356 354 350 351 349 344 343 342 342 343 343 342 339 337 335 336 340 340
345 346 346 345 347 345 342 342 343 344 345 346 347 350 352 352 350 349 345 346 347 346 344 346 345 341 342 339 335 334 338 339
343 346 346 347 346 345 343 345 345 346 344 343 344 346 349 348 349 347 346 344 343 341 341 340 342 339 338 337 331 331 326 332
344 342 344 347 346 347 350 348 344 341 339 338 338 338 337 341 339 339 337 336 335 333 331 333 334 335 328 334 334 328 322 320
346 345 345 347 348 349 351 346 344 343 340 338 334 335 335 336 336 335 332 331 331 329 330 328 328 328 328 324 332 330 330 330
Wind_Speed
14 13 14 14 14 15 15 15 15 15 15 14 13 13 12 11 10 9 9 8 8 7 7 7 5 5 4 3 2 2 3 4
14 12 14 15 15 15 15 15 15 15 14 13 12 11 11 9 8 7 7 6 6 5 4 4 3 3 2 2 3 3 4 6
14 13 12 12 13 13 14 14 14 13 13 12 11 11 10 9 7 6 5 4 3 2 1 0 1 1 1 2 4 5 6 7
14 12 11 11 11 13 13 13 13 12 11 10 9 9 9 8 6 4 3 2 2 2 3 4 5 4 5 4 6 7 7 8
12 12 12 10 11 10 11 12 11 11 12 10 10 9 8 6 5 4 3 3 4 4 6 6 7 7 7 8 7 8 9 10
11 12 12 11 10 9 9 10 11 11 10 9 9 9 7 5 5 4 0 4 6 7 8 8 9 8 8 10 8 9 9 4
15 14 12 12 11 10 7 8 8 8 7 7 7 7 6 5 4 5 5 5 8 9 10 9 10 9 10 4 4 6 4 6
15 12 13 12 11 10 8 7 5 5 5 6 8 7 5 5 4 5 3 4 4 4 5 5 6 5 6 6 5 5 6 6
14 14 13 13 11 10 7 7 7 6 6 5 6 8 5 4 4 5 4 4 4 3 5 5 5 6 8 7 8 8 7 5
14 15 14 14 12 10 10 8 8 7 7 7 6 7 6 5 5 5 4 4 4 5 6 6 6 6 7 7 7 6 7 6
14 16 15 16 13 12 11 11 8 7 7 6 6 6 8 6 6 5 5 4 4 4 5 6 5 6 6 6 7 6 5 5
14 15 18 17 15 14 13 11 8 7 6 6 5 6 7 7 7 7 5 4 4 4 5 5 6 5 6 5 6 5 5 5
15 17 16 14 16 15 12 10 7 6 5 5 4 5 6 8 8 7 5 5 4 4 3 3 3 4 4 5 6 5 5 6
18 16 16 15 15 14 11 8 8 6 5 4 4 4 6 7 8 5 5 3 3 2 0 1 2 2 3 4 6 6 5 5
17 16 15 14 14 13 9 7 5 4 3 2 1 1 2 4 6 5 4 3 3 4 3 3 3 2 2 3 7 6 5 4
16 16 17 16 15 12 10 10 6 5 4 3 3 5 5 6 8 8 5 5 4 3 3 1 2 3 1 4 5 4 3 1
15 16 17 17 17 14 10 9 5 6 3 4 4 5 6 8 9 8 8 5 4 4 4 3 1 0 2 4 4 3 3 0
14 17 16 17 17 14 13 9 8 8 5 4 5 5 6 7 8 8 7 6 6 5 4 4 5 4 3 3 6 4 3 3
13 13 15 16 16 15 17 14 16 11 10 5 7 6 7 8 8 9 9 8 7 6 6 5 6 5 3 4 1 4 4 4
Wind_Direction
147 147 140 143 139 135 134 134 135 136 136 138 137 137 139 137 137 135 135 136 132 128 125 122 117 99 80 65 37 3 330 322
145 151 147 150 145 144 142 142 143 143 142 144 146 148 142 142 149 150 149 147 137 132 130 127 122 109 84 4 328 323 320 322
148 155 149 156 149 148 145 148 150 149 148 151 155 154 150 159 166 167 162 153 155 150 141 218 264 295 260 279 293 297 303 304
154 160 161 163 159 157 154 155 155 152 157 159 161 158 165 171 178 181 191 210 252 309 307 303 308 312 302 295 293 292 294 295
163 167 168 172 171 173 162 159 159 162 169 171 171 177 177 182 195 209 236 227 289 292 293 299 307 306 301 301 292 290 297 280
173 177 175 179 178 179 170 162 166 172 178 181 187 190 185 200 194 210 296 285 281 288 293 298 296 291 294 266 275 291 291 297
182 182 184 187 186 181 178 173 179 177 187 193 196 193 204 207 213 251 265 273 281 282 283 283 285 289 266 307 291 251 288 298
181 181 189 190 187 189 191 179 183 188 191 199 204 206 206 217 217 232 252 242 259 256 287 294 292 292 308 305 300 300 302 295
190 188 189 189 188 194 197 192 186 195 200 199 206 212 211 231 224 244 251 264 260 278 302 295 299 300 293 290 292 300 298 295
197 191 192 192 191 193 204 196 198 199 204 206 201 212 217 228 239 243 261 271 290 307 300 293 290 293 298 296 297 296 300 306
202 196 194 198 193 194 203 201 200 204 206 211 217 218 220 234 240 244 242 255 267 267 287 288 289 293 295 300 292 302 311 309
202 201 198 197 194 199 201 197 207 210 204 214 221 221 225 230 235 247 243 239 242 269 272 268 276 287 282 282 286 299 308 311
203 204 203 200 196 199 197 192 201 213 213 219 223 225 222 232 230 232 246 253 263 264 265 293 327 301 308 316 308 301 297 291
205 202 203 205 204 199 194 197 197 213 229 223 228 227 225 229 230 235 256 263 216 210 354 347 4 336 300 316 302 290 289 291
205 204 200 199 202 192 184 179 183 181 195 205 141 265 226 188 192 167 139 146 148 151 143 170 217 224 269 321 299 294 288 300
204 197 198 191 190 181 180 172 176 178 169 140 130 143 131 136 146 137 141 146 156 141 140 167 294 293 287 345 299 306 309 22
201 198 193 192 185 186 184 179 159 165 153 134 131 125 135 135 129 137 141 140 135 128 128 140 199 246 30 23 343 304 345 86
210 203 198 192 184 181 179 152 133 119 120 131 121 101 100 113 107 116 118 117 105 98 89 59 55 54 42 68 36 346 322 333
210 206 199 192 184 179 171 173 170 173 164 156 139 130 118 115 114 115 112 110 111 108 101 85 65 57 24 48 90 40 17 343